Location: Sternwarte-Kraichtal
(49.1689°N, 8.6996°E)
Time: 17:06:41
(UTC+02:00)

Transit 2A - All Passes

Search period start: 27 May 2022 00:00
Search period end: 06 June 2022 00:00
Orbit: 598 x 959 km, 66.7° (Epoch: 26 May)

Date Brightness Start Highest point End Pass type
(mag) Time Alt. Az. Time Alt. Az. Time Alt. Az.
27 May - 06:38:47 10° S 06:43:48 29° ESE 06:48:27 10° NE daylight
27 May - 08:21:00 10° SW 08:26:46 59° NW 08:32:00 10° NNE daylight
27 May - 10:07:11 10° WNW 10:10:58 18° NNW 10:14:30 10° NNE daylight
27 May - 11:55:25 10° NNW 11:56:16 10° N 11:57:06 10° N daylight
27 May - 13:38:41 10° NNW 13:41:40 16° NNE 13:44:31 10° ENE daylight
27 May - 15:21:17 10° NNW 15:25:58 55° NE 15:30:17 10° SE daylight
27 May - 17:05:11 10° WNW 17:08:39 21° WSW 17:11:58 10° SSW daylight
28 May - 06:05:21 10° SSE 06:09:38 21° ESE 06:13:42 10° ENE daylight
28 May - 07:46:31 10° SW 07:52:24 78° NW 07:57:43 10° NE daylight
28 May - 09:32:03 10° W 09:36:21 22° NNW 09:40:20 10° NNE daylight
28 May - 11:20:14 10° NNW 11:21:29 11° N 11:22:42 10° N daylight
28 May - 13:04:32 10° N 13:06:58 13° NNE 13:09:18 10° NE daylight
28 May - 14:47:01 10° NNW 14:51:31 40° NE 14:55:43 10° ESE daylight
28 May - 16:30:28 10° NW 16:34:32 31° WSW 16:38:23 10° S daylight
29 May - 05:32:22 10° SE 05:35:33 15° ESE 05:38:36 10° ENE daylight
29 May - 07:12:12 10° SSW 07:18:04 79° ESE 07:23:24 10° NE daylight
29 May - 08:57:02 10° W 09:01:46 27° NW 09:06:09 10° NNE daylight
29 May - 10:44:54 10° NNW 10:46:43 12° NNW 10:48:28 10° N daylight
29 May - 12:30:23 10° N 12:32:14 12° NNE 12:34:01 10° NE daylight
29 May - 14:12:48 10° NNW 14:17:02 30° NE 14:20:59 10° ESE daylight
29 May - 15:55:56 10° NW 16:00:22 46° WSW 16:04:32 10° S daylight
30 May - 05:01:08 10° ESE 05:01:30 10° ESE 05:01:52 10° E daylight
30 May - 06:38:02 10° SSW 06:43:47 58° ESE 06:49:02 10° NE daylight
30 May - 08:22:07 10° WSW 08:27:14 33° NW 08:31:57 10° NNE daylight
30 May - 10:09:32 10° NW 10:11:58 13° NNW 10:14:17 10° N daylight
30 May - 11:56:14 10° N 11:57:28 11° N 11:58:40 10° NNE daylight
30 May - 13:38:36 10° NNW 13:42:30 24° NE 13:46:09 10° E daylight
30 May - 15:21:30 10° NW 15:26:08 68° WSW 15:30:27 10° SSE daylight
31 May - 06:04:03 10° S 06:09:32 42° ESE 06:14:34 10° NE daylight
31 May - 07:47:20 10° WSW 07:52:46 43° NW 07:57:44 10° NNE daylight
31 May - 09:34:13 10° WNW 09:37:14 15° NNW 09:40:07 10° NNE daylight
31 May - 11:22:02 10° N 11:22:41 10° N 11:23:18 10° N daylight
31 May - 13:04:25 10° NNW 13:07:53 19° NNE 13:11:11 10° ENE daylight
31 May - 14:47:08 10° NW 14:51:50 83° NE 14:56:13 10° SE daylight
31 May - 16:32:01 10° WNW 16:34:11 13° WSW 16:36:17 10° SW daylight
01 Jun - 05:30:17 10° S 05:35:20 31° ESE 05:40:01 10° NE daylight
01 Jun - 07:12:40 10° SW 07:18:21 56° NW 07:23:29 10° NNE daylight
01 Jun - 08:58:58 10° WNW 09:02:33 17° NNW 09:05:57 10° NNE daylight
01 Jun - 10:47:29 10° N 10:47:53 10° N 10:48:16 10° N daylight
01 Jun - 12:30:16 10° NNW 12:33:14 16° NNE 12:36:05 10° ENE daylight
01 Jun - 14:12:49 10° NNW 14:17:29 58° NE 14:21:48 10° SE daylight
01 Jun - 15:56:50 10° WNW 16:00:07 20° WSW 16:03:17 10° SSW daylight
02 Jun - 04:56:48 10° SSE 05:01:10 22° ESE 05:05:17 10° ENE daylight
02 Jun - 06:38:10 10° SW 06:43:57 75° NW 06:49:13 10° NNE daylight
02 Jun - 08:23:48 10° W 08:27:55 21° NNW 08:31:46 10° NNE daylight
02 Jun - 10:12:11 10° NNW 10:13:05 10° N 10:13:59 10° N daylight
02 Jun - 11:56:07 10° N 11:58:32 14° NNE 12:00:53 10° NE daylight
02 Jun - 13:38:34 10° NNW 13:43:03 42° NE 13:47:14 10° ESE daylight
02 Jun - 15:22:04 10° NW 15:26:00 29° WSW 15:29:46 10° S daylight
03 Jun - 04:23:44 10° SE 04:27:04 16° ESE 04:30:14 10° ENE visible
03 Jun - 06:03:48 10° SSW 06:09:37 82° ESE 06:14:54 10° NE daylight
03 Jun - 07:48:44 10° W 07:53:20 26° NW 07:57:36 10° NNE daylight
03 Jun - 09:36:46 10° NNW 09:38:18 11° NNW 09:39:48 10° N daylight
03 Jun - 11:22:00 10° N 11:23:48 12° NNE 11:25:34 10° NE daylight
03 Jun - 13:04:20 10° NNW 13:08:34 31° NE 13:12:32 10° ESE daylight
03 Jun - 14:47:29 10° NW 14:51:50 43° WSW 14:55:56 10° S daylight
04 Jun - 03:51:51 10° ESE 03:52:59 11° ESE 03:54:08 10° E visible
04 Jun - 05:29:36 10° SSW 05:35:19 61° ESE 05:40:31 10° NE daylight
04 Jun - 07:13:48 10° WSW 07:18:48 32° NW 07:23:24 10° NNE daylight
04 Jun - 09:01:22 10° NW 09:03:32 12° NNW 09:05:39 10° N daylight
04 Jun - 10:47:54 10° N 10:49:02 11° N 10:50:10 10° NNE daylight
04 Jun - 12:30:08 10° NNW 12:34:02 24° NE 12:37:42 10° E daylight
04 Jun - 14:13:02 10° NW 14:17:36 64° WSW 14:21:54 10° SSE daylight
05 Jun - 04:55:35 10° S 05:01:04 44° ESE 05:06:04 10° NE daylight
05 Jun - 06:38:59 10° WSW 06:44:19 41° NW 06:49:11 10° NNE daylight
05 Jun - 08:26:00 10° NW 08:28:48 14° NNW 08:31:30 10° N daylight
05 Jun - 10:14:00 10° N 10:14:15 10° N 10:14:30 10° N daylight
05 Jun - 11:55:57 10° NNW 11:59:26 20° NNE 12:02:44 10° ENE daylight
05 Jun - 13:38:40 10° NW 13:43:18 88° NE 13:47:40 10° SE daylight
05 Jun - 15:23:47 10° W 15:25:37 12° WSW 15:27:24 10° SW daylight
